| time (UTC) | temp F | wind direction | speed MPH | gust MPH | rain 1hr in | rain 24hr in | rain mn in | humidity % | barometer mb |
| 20260507034304 | 59 | 169 | 2.0 | 5.0 | 0.00 | 0.00 | 0.00 | 79 | 1008.3 |
| 20260507033803 | 59 | 154 | 3.0 | 6.0 | 0.00 | 0.00 | 0.00 | 78 | 1008.3 |
| 20260507033304 | 59 | 185 | 2.0 | 6.0 | 0.00 | 0.00 | 0.00 | 78 | 1008.3 |
| 20260507032804 | 59 | 132 | 0.0 | 2.0 | 0.00 | 0.00 | 0.00 | 78 | 1008.4 |
| 20260507031804 | 59 | 190 | 1.0 | 6.0 | 0.00 | 0.00 | 0.00 | 77 | 1008.4 |
| 20260507031304 | 59 | 165 | 3.0 | 5.0 | 0.00 | 0.00 | 0.00 | 77 | 1008.2 |
| 20260507030804 | 59 | 167 | 4.0 | 7.0 | 0.00 | 0.00 | 0.00 | 77 | 1008.2 |
| 20260507030304 | 59 | 180 | 3.0 | 7.0 | 0.00 | 0.00 | 0.00 | 77 | 1008.2 |
| 20260507025803 | 59 | 168 | 3.0 | 6.0 | 0.00 | 0.00 | 0.00 | 78 | 1008.2 |
| 20260507025306 | 59 | 152 | 2.0 | 3.0 | 0.00 | 0.00 | 0.00 | 78 | 1008.2 |
| 20260507024804 | 59 | 129 | 0.0 | 1.0 | 0.00 | 0.00 | 0.00 | 77 | 1008.2 |
| 20260507024303 | 59 | 168 | 0.0 | 3.0 | 0.00 | 0.00 | 0.00 | 77 | 1008.2 |
| 20260507023804 | 59 | 156 | 2.0 | 3.0 | 0.00 | 0.00 | 0.00 | 77 | 1008.2 |
| 20260507023304 | 59 | 187 | 0.0 | 2.0 | 0.00 | 0.00 | 0.00 | 77 | 1008.1 |
| 20260507022804 | 59 | 170 | 1.0 | 2.0 | 0.00 | 0.00 | 0.00 | 77 | 1008.1 |
| 20260507022306 | 59 | 181 | 2.0 | 3.0 | 0.00 | 0.00 | 0.00 | 77 | 1008.1 |
| 20260507021804 | 59 | 175 | 2.0 | 3.0 | 0.00 | 0.00 | 0.00 | 77 | 1008.1 |
| 20260507021304 | 59 | 197 | 3.0 | 5.0 | 0.00 | 0.00 | 0.00 | 77 | 1008.1 |
| 20260507020804 | 59 | 198 | 3.0 | 5.0 | 0.00 | 0.00 | 0.00 | 76 | 1008.1 |
| 20260507020303 | 59 | 182 | 2.0 | 3.0 | 0.00 | 0.00 | 0.00 | 76 | 1008.1 |
| 20260507015306 | 59 | 158 | 4.0 | 7.0 | 0.00 | 0.00 | 0.00 | 76 | 1008.3 |
| 20260507014804 | 59 | 177 | 3.0 | 7.0 | 0.00 | 0.00 | 0.00 | 76 | 1008.3 |
| 20260507014304 | 59 | 191 | 3.0 | 7.0 | 0.00 | 0.00 | 0.00 | 76 | 1008.3 |
| 20260507013804 | 59 | 198 | 3.0 | 8.0 | 0.00 | 0.00 | 0.00 | 75 | 1008.3 |
| 20260507013304 | 59 | 179 | 4.0 | 7.0 | 0.00 | 0.00 | 0.00 | 75 | 1008.4 |
| 20260507012804 | 59 | 187 | 4.0 | 7.0 | 0.00 | 0.00 | 0.00 | 75 | 1008.4 |
| 20260507012306 | 59 | 195 | 5.0 | 8.0 | 0.00 | 0.00 | 0.00 | 75 | 1008.4 |
| 20260507011804 | 59 | 189 | 5.0 | 7.0 | 0.00 | 0.00 | 0.00 | 75 | 1008.4 |
| 20260507011304 | 59 | 178 | 4.0 | 7.0 | 0.00 | 0.00 | 0.00 | 75 | 1008.5 |
| 20260507010804 | 59 | 192 | 3.0 | 5.0 | 0.00 | 0.00 | 0.00 | 75 | 1008.6 |
| 20260507005804 | 59 | 160 | 2.0 | 5.0 | 0.00 | 0.00 | 0.00 | 75 | 1008.7 |
| 20260507005305 | 59 | 184 | 3.0 | 6.0 | 0.00 | 0.00 | 0.00 | 75 | 1008.7 |
| 20260507004804 | 59 | 182 | 4.0 | 7.0 | 0.00 | 0.00 | 0.00 | 75 | 1008.7 |
| 20260507004304 | 59 | 161 | 4.0 | 7.0 | 0.00 | 0.00 | 0.00 | 75 | 1008.8 |
| 20260507003804 | 59 | 176 | 3.0 | 5.0 | 0.00 | 0.00 | 0.00 | 75 | 1008.8 |
| 20260507002306 | 60 | 197 | 5.0 | 7.0 | 0.00 | 0.00 | 0.00 | 74 | 1008.8 |
| 20260507001804 | 60 | 184 | 5.0 | 8.0 | 0.00 | 0.00 | 0.00 | 74 | 1008.8 |
| 20260507001303 | 60 | 202 | 3.0 | 8.0 | 0.00 | 0.00 | 0.00 | 74 | 1008.8 |
| 20260507000804 | 60 | 179 | 5.0 | 9.0 | 0.00 | 0.00 | 0.00 | 74 | 1009.0 |
| 20260507000306 | 60 | 160 | 5.0 | 10.0 | 0.00 | 0.00 | 0.00 | 74 | 1009.0 |
| 20260506235804 | 60 | 163 | 5.0 | 12.0 | 0.00 | 0.00 | 0.00 | 74 | 1009.0 |
| 20260506235306 | 60 | 163 | 6.0 | 9.0 | 0.00 | 0.00 | 0.00 | 74 | 1009.0 |
| 20260506234804 | 60 | 167 | 5.0 | 9.0 | 0.00 | 0.00 | 0.00 | 74 | 1009.0 |
| 20260506234303 | 60 | 154 | 5.0 | 8.0 | 0.00 | 0.00 | 0.00 | 74 | 1009.0 |
| 20260506233304 | 61 | 177 | 5.0 | 8.0 | 0.00 | 0.00 | 0.00 | 73 | 1009.1 |
| 20260506232804 | 61 | 162 | 3.0 | 7.0 | 0.00 | 0.00 | 0.00 | 73 | 1009.1 |
| 20260506232306 | 61 | 187 | 2.0 | 6.0 | 0.00 | 0.00 | 0.00 | 73 | 1009.0 |
| 20260506231804 | 61 | 172 | 5.0 | 8.0 | 0.00 | 0.00 | 0.00 | 73 | 1009.1 |
| 20260506231303 | 61 | 181 | 3.0 | 6.0 | 0.00 | 0.00 | 0.00 | 73 | 1009.1 |
| 20260506230804 | 61 | 165 | 3.0 | 6.0 | 0.00 | 0.00 | 0.00 | 73 | 1009.1 |
| 20260506230304 | 61 | 199 | 3.0 | 6.0 | 0.00 | 0.00 | 0.00 | 72 | 1009.1 |
| 20260506225804 | 61 | 186 | 2.0 | 5.0 | 0.00 | 0.00 | 0.00 | 72 | 1009.2 |
| 20260506225305 | 61 | 191 | 4.0 | 6.0 | 0.00 | 0.00 | 0.00 | 71 | 1009.2 |
| 20260506224804 | 61 | 194 | 3.0 | 6.0 | 0.00 | 0.00 | 0.00 | 71 | 1009.1 |
| 20260506224303 | 62 | 185 | 4.0 | 7.0 | 0.00 | 0.00 | 0.00 | 70 | 1009.2 |
| 20260506223804 | 62 | 180 | 5.0 | 8.0 | 0.00 | 0.00 | 0.00 | 69 | 1009.2 |
| 20260506221804 | 62 | 164 | 5.0 | 10.0 | 0.00 | 0.00 | 0.00 | 66 | 1009.1 |
| 20260506221304 | 62 | 168 | 4.0 | 7.0 | 0.00 | 0.00 | 0.00 | 65 | 1009.0 |
| 20260506220803 | 63 | 177 | 4.0 | 6.0 | 0.00 | 0.00 | 0.00 | 64 | 1009.0 |
| 20260506220303 | 63 | 169 | 3.0 | 7.0 | 0.00 | 0.00 | 0.00 | 63 | 1009.0 |
| 20260506215804 | 63 | 182 | 5.0 | 8.0 | 0.00 | 0.00 | 0.00 | 63 | 1009.0 |
| 20260506215306 | 63 | 163 | 5.0 | 8.0 | 0.00 | 0.00 | 0.00 | 62 | 1009.1 |
| 20260506214303 | 63 | 180 | 6.0 | 8.0 | 0.00 | 0.00 | 0.00 | 61 | 1009.0 |
| 20260506213804 | 64 | 180 | 5.0 | 9.0 | 0.00 | 0.00 | 0.00 | 60 | 1009.0 |
| 20260506212804 | 65 | 172 | 4.0 | 7.0 | 0.00 | 0.00 | 0.00 | 58 | 1008.9 |
| 20260506212306 | 65 | 179 | 4.0 | 7.0 | 0.00 | 0.00 | 0.00 | 58 | 1008.7 |
| 20260506211804 | 65 | 164 | 4.0 | 8.0 | 0.00 | 0.00 | 0.00 | 57 | 1008.7 |
| 20260506211304 | 65 | 174 | 4.0 | 7.0 | 0.00 | 0.00 | 0.00 | 57 | 1008.7 |
| 20260506210804 | 65 | 198 | 3.0 | 6.0 | 0.00 | 0.00 | 0.00 | 57 | 1008.6 |
| 20260506210304 | 65 | 189 | 3.0 | 7.0 | 0.00 | 0.00 | 0.00 | 56 | 1008.4 |
| 20260506205803 | 66 | 189 | 2.0 | 6.0 | 0.00 | 0.00 | 0.00 | 56 | 1008.4 |
| 20260506204304 | 66 | 226 | 3.0 | 12.0 | 0.00 | 0.00 | 0.00 | 55 | 1008.2 |
| 20260506203804 | 66 | 233 | 2.0 | 6.0 | 0.00 | 0.00 | 0.00 | 55 | 1008.2 |
| 20260506203305 | 66 | 208 | 3.0 | 7.0 | 0.00 | 0.00 | 0.00 | 55 | 1008.2 |
| 20260506202804 | 67 | 201 | 4.0 | 7.0 | 0.00 | 0.00 | 0.00 | 54 | 1008.1 |
| 20260506202306 | 67 | 189 | 5.0 | 10.0 | 0.00 | 0.00 | 0.00 | 54 | 1008.1 |
| 20260506201804 | 67 | 211 | 4.0 | 8.0 | 0.00 | 0.00 | 0.00 | 54 | 1008.0 |
| 20260506201304 | 67 | 199 | 5.0 | 10.0 | 0.00 | 0.00 | 0.00 | 53 | 1008.0 |
| 20260506200804 | 67 | 205 | 3.0 | 8.0 | 0.00 | 0.00 | 0.00 | 53 | 1008.0 |
| 20260506200304 | 68 | 218 | 6.0 | 9.0 | 0.00 | 0.00 | 0.00 | 53 | 1008.0 |
| 20260506195804 | 68 | 224 | 5.0 | 12.0 | 0.00 | 0.00 | 0.00 | 52 | 1008.0 |
| 20260506194804 | 69 | 219 | 4.0 | 10.0 | 0.00 | 0.00 | 0.00 | 51 | 1007.9 |
| 20260506194304 | 69 | 226 | 5.0 | 8.0 | 0.00 | 0.00 | 0.00 | 50 | 1007.8 |
| 20260506193803 | 69 | 221 | 3.0 | 6.0 | 0.00 | 0.00 | 0.00 | 50 | 1007.7 |
| 20260506193304 | 69 | 197 | 6.0 | 12.0 | 0.00 | 0.00 | 0.00 | 50 | 1007.7 |
| 20260506192804 | 69 | 233 | 7.0 | 12.0 | 0.00 | 0.00 | 0.00 | 50 | 1007.6 |
| 20260506192305 | 70 | 233 | 9.0 | 14.0 | 0.00 | 0.00 | 0.00 | 51 | 1007.5 |
| 20260506191303 | 70 | 225 | 7.0 | 12.0 | 0.00 | 0.00 | 0.00 | 50 | 1007.4 |
| 20260506190804 | 70 | 224 | 8.0 | 13.0 | 0.00 | 0.00 | 0.00 | 49 | 1007.3 |
| 20260506190304 | 71 | 226 | 5.0 | 10.0 | 0.00 | 0.00 | 0.00 | 48 | 1007.3 |
| 20260506185804 | 71 | 240 | 7.0 | 14.0 | 0.00 | 0.00 | 0.00 | 48 | 1007.3 |
| 20260506185306 | 71 | 245 | 6.0 | 13.0 | 0.00 | 0.00 | 0.00 | 47 | 1007.3 |
| 20260506184804 | 72 | 257 | 7.0 | 10.0 | 0.00 | 0.00 | 0.00 | 47 | 1007.2 |
| 20260506184304 | 72 | 255 | 6.0 | 10.0 | 0.00 | 0.00 | 0.00 | 47 | 1007.2 |
| 20260506183804 | 72 | 227 | 10.0 | 16.0 | 0.00 | 0.00 | 0.00 | 47 | 1007.2 |
| 20260506183304 | 72 | 253 | 7.0 | 12.0 | 0.00 | 0.00 | 0.00 | 46 | 1007.2 |
| 20260506182804 | 73 | 253 | 7.0 | 14.0 | 0.00 | 0.00 | 0.00 | 46 | 1007.2 |
| 20260506182306 | 73 | 241 | 9.0 | 14.0 | 0.00 | 0.00 | 0.00 | 45 | 1007.2 |
| 20260506181803 | 73 | 201 | 6.0 | 12.0 | 0.00 | 0.00 | 0.00 | 46 | 1007.2 |
| 20260506181303 | 73 | 212 | 9.0 | 16.0 | 0.00 | 0.00 | 0.00 | 46 | 1007.1 |
| 20260506180804 | 73 | 236 | 9.0 | 15.0 | 0.00 | 0.00 | 0.00 | 44 | 1007.1 |
| 20260506180304 | 73 | 241 | 10.0 | 14.0 | 0.00 | 0.00 | 0.00 | 43 | 1007.1 |
| 20260506175804 | 74 | 227 | 9.0 | 13.0 | 0.00 | 0.00 | 0.00 | 42 | 1007.1 |
| 20260506175306 | 74 | 231 | 7.0 | 12.0 | 0.00 | 0.00 | 0.00 | 41 | 1007.1 |
| 20260506174804 | 75 | 258 | 5.0 | 9.0 | 0.00 | 0.00 | 0.00 | 41 | 1007.1 |
| 20260506174304 | 75 | 239 | 7.0 | 10.0 | 0.00 | 0.00 | 0.00 | 40 | 1007.1 |
| 20260506173804 | 75 | 238 | 8.0 | 12.0 | 0.00 | 0.00 | 0.00 | 41 | 1007.1 |
| 20260506172306 | 75 | 241 | 7.0 | 12.0 | 0.00 | 0.00 | 0.00 | 41 | 1007.3 |
| 20260506171803 | 75 | 178 | 6.0 | 16.0 | 0.00 | 0.00 | 0.00 | 41 | 1007.3 |
| 20260506171303 | 76 | 220 | 7.0 | 14.0 | 0.00 | 0.00 | 0.00 | 40 | 1007.3 |
| 20260506170804 | 76 | 204 | 6.0 | 12.0 | 0.00 | 0.00 | 0.00 | 40 | 1007.3 |
| 20260506170304 | 76 | 219 | 5.0 | 12.0 | 0.00 | 0.00 | 0.00 | 40 | 1007.3 |
| 20260506165803 | 76 | 223 | 7.0 | 13.0 | 0.00 | 0.00 | 0.00 | 40 | 1007.3 |
| 20260506165305 | 76 | 211 | 9.0 | 13.0 | 0.00 | 0.00 | 0.00 | 40 | 1007.3 |
| 20260506164304 | 77 | 218 | 6.0 | 12.0 | 0.00 | 0.00 | 0.00 | 40 | 1007.5 |
| 20260506163803 | 76 | 193 | 6.0 | 16.0 | 0.00 | 0.00 | 0.00 | 40 | 1007.5 |
| 20260506163304 | 76 | 202 | 9.0 | 14.0 | 0.00 | 0.00 | 0.00 | 39 | 1007.4 |
| 20260506162803 | 76 | 198 | 11.0 | 17.0 | 0.00 | 0.00 | 0.00 | 38 | 1007.4 |
| 20260506162306 | 77 | 160 | 6.0 | 12.0 | 0.00 | 0.00 | 0.00 | 38 | 1007.4 |
| 20260506161304 | 77 | 142 | 5.0 | 9.0 | 0.00 | 0.00 | 0.00 | 34 | 1007.5 |
| 20260506160803 | 77 | 212 | 5.0 | 7.0 | 0.00 | 0.00 | 0.00 | 34 | 1007.5 |
| 20260506160304 | 77 | 129 | 4.0 | 8.0 | 0.00 | 0.00 | 0.00 | 34 | 1007.5 |
| 20260506155803 | 77 | 172 | 3.0 | 9.0 | 0.00 | 0.00 | 0.00 | 36 | 1007.5 |
| 20260506154804 | 76 | 107 | 4.0 | 9.0 | 0.00 | 0.00 | 0.00 | 35 | 1007.6 |
| 20260506153804 | 76 | 122 | 3.0 | 8.0 | 0.00 | 0.00 | 0.00 | 36 | 1007.7 |
| 20260506152804 | 76 | 77 | 7.0 | 12.0 | 0.00 | 0.00 | 0.00 | 36 | 1008.1 |
| 20260506152305 | 76 | 72 | 3.0 | 9.0 | 0.00 | 0.00 | 0.00 | 37 | 1008.1 |
| 20260506151803 | 75 | 126 | 1.0 | 7.0 | 0.00 | 0.00 | 0.00 | 38 | 1008.1 |
| 20260506151304 | 76 | 128 | 6.0 | 8.0 | 0.00 | 0.00 | 0.00 | 37 | 1008.2 |
| 20260506150804 | 76 | 179 | 7.0 | 10.0 | 0.00 | 0.00 | 0.00 | 36 | 1008.2 |
| 20260506150305 | 76 | 134 | 1.0 | 3.0 | 0.00 | 0.00 | 0.00 | 36 | 1008.3 |
| 20260506145803 | 76 | 134 | 3.0 | 5.0 | 0.00 | 0.00 | 0.00 | 36 | 1008.3 |
| 20260506145305 | 76 | 178 | 2.0 | 7.0 | 0.00 | 0.00 | 0.00 | 37 | 1008.4 |
| 20260506144803 | 76 | 187 | 3.0 | 8.0 | 0.00 | 0.00 | 0.00 | 36 | 1008.6 |
| 20260506143803 | 75 | 156 | 3.0 | 8.0 | 0.00 | 0.00 | 0.00 | 37 | 1008.8 |
| 20260506143304 | 75 | 160 | 6.0 | 12.0 | 0.00 | 0.00 | 0.00 | 37 | 1008.8 |
| 20260506142804 | 75 | 171 | 3.0 | 6.0 | 0.00 | 0.00 | 0.00 | 37 | 1008.8 |
| 20260506141804 | 75 | 70 | 2.0 | 6.0 | 0.00 | 0.00 | 0.00 | 37 | 1009.0 |
| 20260506141304 | 74 | 71 | 3.0 | 8.0 | 0.00 | 0.00 | 0.00 | 37 | 1009.1 |
| 20260506140304 | 74 | 109 | 7.0 | 12.0 | 0.00 | 0.00 | 0.00 | 37 | 1009.2 |
| 20260506135804 | 74 | 78 | 4.0 | 9.0 | 0.00 | 0.00 | 0.00 | 37 | 1009.2 |
| 20260506135306 | 74 | 156 | 3.0 | 9.0 | 0.00 | 0.00 | 0.00 | 37 | 1009.3 |
| 20260506134803 | 75 | 193 | 4.0 | 9.0 | 0.00 | 0.00 | 0.00 | 37 | 1009.3 |
| 20260506134304 | 75 | 155 | 6.0 | 12.0 | 0.00 | 0.00 | 0.00 | 37 | 1009.3 |
| 20260506133804 | 75 | 123 | 3.0 | 8.0 | 0.00 | 0.00 | 0.00 | 36 | 1009.5 |
| 20260506133304 | 75 | 268 | 0.0 | 7.0 | 0.00 | 0.00 | 0.00 | 37 | 1009.5 |
| 20260506132804 | 74 | 18 | 1.0 | 6.0 | 0.00 | 0.00 | 0.00 | 38 | 1009.6 |
| 20260506132307 | 74 | 315 | 4.0 | 7.0 | 0.00 | 0.00 | 0.00 | 38 | 1009.7 |
| 20260506131304 | 73 | 136 | 3.0 | 7.0 | 0.00 | 0.00 | 0.00 | 38 | 1009.8 |
| 20260506130804 | 73 | 187 | 6.0 | 10.0 | 0.00 | 0.00 | 0.00 | 38 | 1009.9 |
| 20260506130304 | 73 | 170 | 5.0 | 9.0 | 0.00 | 0.00 | 0.00 | 38 | 1010.0 |
| 20260506125804 | 73 | 149 | 3.0 | 10.0 | 0.00 | 0.00 | 0.00 | 38 | 1010.0 |
| 20260506125305 | 73 | 215 | 5.0 | 12.0 | 0.00 | 0.00 | 0.00 | 39 | 1010.0 |
| 20260506124804 | 73 | 239 | 7.0 | 12.0 | 0.00 | 0.00 | 0.00 | 38 | 1010.0 |
| 20260506123803 | 73 | 38 | 2.0 | 6.0 | 0.00 | 0.00 | 0.00 | 37 | 1010.0 |
| 20260506123304 | 73 | 78 | 1.0 | 6.0 | 0.00 | 0.00 | 0.00 | 38 | 1010.1 |
| 20260506122804 | 73 | 60 | 4.0 | 9.0 | 0.00 | 0.00 | 0.00 | 39 | 1010.1 |
| 20260506122306 | 73 | 65 | 4.0 | 7.0 | 0.00 | 0.00 | 0.00 | 37 | 1010.2 |
| 20260506121804 | 73 | 319 | 4.0 | 10.0 | 0.00 | 0.00 | 0.00 | 38 | 1010.2 |
| 20260506121303 | 73 | 58 | 2.0 | 7.0 | 0.00 | 0.00 | 0.00 | 38 | 1010.2 |
| 20260506120304 | 72 | 265 | 2.0 | 5.0 | 0.00 | 0.00 | 0.00 | 39 | 1010.4 |
| 20260506115803 | 72 | 277 | 4.0 | 8.0 | 0.00 | 0.00 | 0.00 | 41 | 1010.6 |
| 20260506115306 | 71 | 227 | 5.0 | 7.0 | 0.00 | 0.00 | 0.00 | 41 | 1010.6 |
| 20260506114804 | 72 | 269 | 5.0 | 12.0 | 0.00 | 0.00 | 0.00 | 39 | 1010.6 |
| 20260506114303 | 72 | 345 | 2.0 | 6.0 | 0.00 | 0.00 | 0.00 | 40 | 1010.6 |
| 20260506113804 | 72 | 277 | 2.0 | 5.0 | 0.00 | 0.00 | 0.00 | 41 | 1010.6 |
| 20260506113303 | 72 | 303 | 3.0 | 5.0 | 0.00 | 0.00 | 0.00 | 41 | 1010.6 |
| 20260506112804 | 72 | 291 | 5.0 | 8.0 | 0.00 | 0.00 | 0.00 | 40 | 1010.6 |
| 20260506112306 | 72 | 275 | 1.0 | 3.0 | 0.00 | 0.00 | 0.00 | 42 | 1010.7 |
| 20260506111304 | 72 | 28 | 0.0 | 2.0 | 0.00 | 0.00 | 0.00 | 42 | 1010.8 |
| 20260506110304 | 70 | 89 | 1.0 | 3.0 | 0.00 | 0.00 | 0.00 | 45 | 1011.0 |
| 20260506105305 | 70 | 292 | 2.0 | 3.0 | 0.00 | 0.00 | 0.00 | 45 | 1011.0 |
| 20260506104804 | 71 | 300 | 2.0 | 3.0 | 0.00 | 0.00 | 0.00 | 45 | 1011.0 |
| 20260506104304 | 71 | 246 | 1.0 | 2.0 | 0.00 | 0.00 | 0.00 | 47 | 1011.0 |
| 20260506103804 | 70 | 48 | 2.0 | 5.0 | 0.00 | 0.00 | 0.00 | 47 | 1011.0 |
| 20260506103304 | 70 | 26 | 2.0 | 6.0 | 0.00 | 0.00 | 0.00 | 47 | 1011.2 |
| 20260506102804 | 70 | 14 | 3.0 | 5.0 | 0.00 | 0.00 | 0.00 | 47 | 1011.1 |
| 20260506101803 | 69 | 166 | 2.0 | 6.0 | 0.00 | 0.00 | 0.00 | 50 | 1011.2 |
| 20260506100803 | 69 | 333 | 1.0 | 5.0 | 0.00 | 0.00 | 0.00 | 50 | 1011.3 |
| 20260506100303 | 70 | 36 | 3.0 | 6.0 | 0.00 | 0.00 | 0.00 | 49 | 1011.3 |
| 20260506095804 | 70 | 171 | 1.0 | 2.0 | 0.00 | 0.00 | 0.00 | 49 | 1011.3 |
| 20260506095305 | 69 | 80 | 0.0 | 3.0 | 0.00 | 0.00 | 0.00 | 51 | 1011.3 |
| 20260506094303 | 68 | 79 | 2.0 | 5.0 | 0.00 | 0.00 | 0.00 | 52 | 1011.3 |
| 20260506093804 | 67 | 73 | 1.0 | 3.0 | 0.00 | 0.00 | 0.00 | 53 | 1011.3 |
| 20260506093304 | 67 | 98 | 2.0 | 5.0 | 0.00 | 0.00 | 0.00 | 54 | 1011.3 |
| 20260506092306 | 66 | 78 | 0.0 | 3.0 | 0.00 | 0.00 | 0.00 | 56 | 1011.3 |
| 20260506091803 | 65 | 96 | 2.0 | 5.0 | 0.00 | 0.00 | 0.00 | 56 | 1011.3 |
| 20260506091303 | 65 | 110 | 1.0 | 6.0 | 0.00 | 0.00 | 0.00 | 56 | 1011.3 |
| 20260506090804 | 65 | 77 | 1.0 | 3.0 | 0.00 | 0.00 | 0.00 | 57 | 1011.3 |
| 20260506090304 | 65 | 223 | 1.0 | 3.0 | 0.00 | 0.00 | 0.00 | 57 | 1011.4 |
| 20260506085803 | 64 | 50 | 1.0 | 3.0 | 0.00 | 0.00 | 0.00 | 58 | 1011.4 |
| 20260506084803 | 64 | 17 | 3.0 | 6.0 | 0.00 | 0.00 | 0.00 | 59 | 1011.4 |
| 20260506084303 | 64 | 348 | 2.0 | 3.0 | 0.00 | 0.00 | 0.00 | 59 | 1011.4 |
| 20260506083804 | 63 | 43 | 1.0 | 6.0 | 0.00 | 0.00 | 0.00 | 59 | 1011.4 |
| 20260506082804 | 63 | 43 | 2.0 | 3.0 | 0.00 | 0.00 | 0.00 | 61 | 1011.4 |
| 20260506082305 | 62 | 314 | 3.0 | 5.0 | 0.00 | 0.00 | 0.00 | 61 | 1011.4 |
| 20260506081803 | 62 | 348 | 2.0 | 6.0 | 0.00 | 0.00 | 0.00 | 62 | 1011.4 |
| 20260506081304 | 62 | 37 | 2.0 | 5.0 | 0.00 | 0.00 | 0.00 | 62 | 1011.4 |
| 20260506080804 | 62 | 343 | 4.0 | 6.0 | 0.00 | 0.00 | 0.00 | 62 | 1011.4 |
| 20260506080304 | 62 | 348 | 4.0 | 7.0 | 0.00 | 0.00 | 0.00 | 63 | 1011.4 |
| 20260506073304 | 61 | 353 | 5.0 | 6.0 | 0.00 | 0.00 | 0.00 | 65 | 1011.5 |
| 20260506072804 | 61 | 15 | 4.0 | 7.0 | 0.00 | 0.00 | 0.00 | 64 | 1011.5 |
| 20260506072306 | 61 | 17 | 3.0 | 6.0 | 0.00 | 0.00 | 0.00 | 65 | 1011.5 |
| 20260506071804 | 60 | 33 | 2.0 | 5.0 | 0.00 | 0.00 | 0.00 | 65 | 1011.5 |
| 20260506071304 | 60 | 344 | 2.0 | 5.0 | 0.00 | 0.00 | 0.00 | 66 | 1011.4 |
| 20260506070803 | 60 | 29 | 2.0 | 7.0 | 0.00 | 0.00 | 0.00 | 66 | 1011.3 |
| 20260506062306 | 58 | 0 | 3.0 | 5.0 | 0.00 | 0.00 | 0.00 | 68 | 1011.3 |
| 20260506061804 | 58 | 353 | 3.0 | 7.0 | 0.00 | 0.00 | 0.00 | 68 | 1011.3 |
| 20260506060803 | 58 | 6 | 4.0 | 7.0 | 0.00 | 0.00 | 0.00 | 68 | 1011.2 |
| 20260506060303 | 58 | 8 | 5.0 | 7.0 | 0.00 | 0.00 | 0.00 | 68 | 1011.1 |
| 20260506051304 | 57 | 337 | 3.0 | 5.0 | 0.00 | 0.00 | 0.00 | 69 | 1011.0 |
| 20260506050803 | 57 | 344 | 2.0 | 5.0 | 0.00 | 0.00 | 0.00 | 69 | 1011.0 |
| 20260506050304 | 58 | 315 | 2.0 | 3.0 | 0.00 | 0.00 | 0.00 | 69 | 1010.9 |
| 20260506044804 | 58 | 317 | 3.0 | 3.0 | 0.00 | 0.00 | 0.00 | 68 | 1011.0 |
| 20260506044304 | 59 | 320 | 2.0 | 3.0 | 0.00 | 0.00 | 0.00 | 68 | 1011.1 |
| 20260506043804 | 59 | 310 | 2.0 | 3.0 | 0.00 | 0.00 | 0.00 | 67 | 1011.0 |
| 20260506043303 | 59 | 316 | 1.0 | 3.0 | 0.00 | 0.00 | 0.00 | 66 | 1011.1 |
| 20260506042804 | 60 | 333 | 2.0 | 3.0 | 0.00 | 0.00 | 0.00 | 65 | 1011.1 |
| 20260506042305 | 60 | 349 | 1.0 | 3.0 | 0.00 | 0.00 | 0.00 | 65 | 1011.0 |
| 20260506041804 | 60 | 352 | 1.0 | 3.0 | 0.00 | 0.00 | 0.00 | 65 | 1011.0 |
| 20260506041304 | 60 | 25 | 0.0 | 1.0 | 0.00 | 0.00 | 0.00 | 65 | 1011.1 |
| 20260506040804 | 60 | 356 | 1.0 | 3.0 | 0.00 | 0.00 | 0.00 | 64 | 1011.1 |
| 20260506040303 | 60 | 348 | 2.0 | 3.0 | 0.00 | 0.00 | 0.00 | 64 | 1011.1 |
| 20260506035804 | 60 | 354 | 2.0 | 3.0 | 0.00 | 0.00 | 0.00 | 64 | 1011.1 |
| 20260506035306 | 60 | 349 | 3.0 | 3.0 | 0.00 | 0.00 | 0.00 | 64 | 1011.1 |
| 20260506034804 | 60 | 357 | 2.0 | 3.0 | 0.00 | 0.00 | 0.00 | 64 | 1011.1 |